CW6666 Weather Reports


Display with metric or nautical units.
time (UTC)temp
F
wind
direction
speed
MPH
gust
MPH
rain 1hr
in
rain 24hr
in
rain mn
in
humidity
%
barometer
mb
20140903065351 84 196 3.0 4.0 0.00 0.43 0.00 82 1005.9
20140903064830 85 206 2.0 3.0 0.00 0.43 0.00 82 1005.9
20140903064416 85 202 2.0 4.0 0.00 0.43 0.00 82 1006.0
20140903063857 85 209 1.0 4.0 0.00 0.43 0.00 82 1006.0
20140903063427 85 202 3.0 3.0 0.00 0.43 0.00 82 1006.0
20140903062829 85 214 2.0 3.0 0.00 0.43 0.00 82 1006.0
20140903062401 85 217 1.0 3.0 0.00 0.43 0.00 81 1006.0
20140903061849 85 199 0.0 4.0 0.00 0.43 0.00 81 1006.0
20140903061418 85 228 3.0 4.0 0.00 0.49 0.00 81 1006.0
20140903060910 85 188 1.0 3.0 0.00 0.49 0.00 81 1006.0
20140903060348 85 190 1.0 3.0 0.00 0.49 0.00 81 1006.0
20140903054914 85 196 1.0 9.0 0.00 0.49 0.00 81 1006.0
20140903054343 85 177 1.0 9.0 0.00 0.49 0.00 81 1005.9
20140903053402 85 175 3.0 7.0 0.00 0.49 0.00 80 1005.9
20140903052842 86 126 3.0 9.0 0.00 0.49 0.00 80 1006.0
20140903052418 86 144 5.0 9.0 0.00 0.49 0.00 79 1006.0
20140903051914 86 175 3.0 6.0 0.00 0.49 0.00 79 1006.0
20140903051344 86 178 2.0 5.0 0.00 0.49 0.00 78 1006.1
20140903050845 86 180 3.0 4.0 0.00 0.49 0.00 78 1006.1
20140903050422 86 144 3.0 6.0 0.00 0.49 0.00 78 1006.1
20140903045920 86 168 3.0 6.0 0.00 0.49 0.00 78 1005.9
20140903045330 86 180 1.0 9.0 0.00 0.49 0.00 77 1005.9
20140903044921 86 184 4.0 9.0 0.00 0.49 0.00 76 1005.9
20140903044334 87 206 3.0 9.0 0.00 0.49 0.00 77 1005.8
20140903043358 87 175 4.0 7.0 0.00 0.49 0.00 79 1005.8
20140903042850 87 188 6.0 9.0 0.00 0.49 0.00 78 1005.9
20140903042407 87 168 5.0 9.0 0.00 0.49 0.00 78 1005.9
20140903041842 87 150 4.0 9.0 0.00 0.49 0.00 77 1005.9
20140903040903 87 155 3.0 10.0 0.00 0.49 0.00 77 1005.9
20140903040337 87 117 4.0 10.0 0.00 0.49 0.00 77 1005.9
20140903035908 87 178 4.0 9.0 0.00 0.49 0.00 77 1005.9
20140903035330 88 168 5.0 11.0 0.00 0.49 0.00 76 1005.9
20140903034350 88 125 5.0 11.0 0.00 0.49 0.00 76 1006.2
20140903033840 88 135 7.0 10.0 0.00 0.49 0.00 76 1006.2
20140903033422 88 194 5.0 14.0 0.00 0.49 0.00 76 1006.2
20140903032909 88 161 6.0 14.0 0.00 0.49 0.00 77 1006.2
20140903032344 88 186 9.0 11.0 0.00 0.49 0.00 77 1006.2
20140903031842 89 159 6.0 11.0 0.00 0.49 0.00 75 1006.2
20140903031404 89 164 5.0 11.0 0.00 0.49 0.00 76 1006.2
20140903030855 89 186 5.0 11.0 0.00 0.49 0.00 76 1006.2
20140903030417 89 156 3.0 12.0 0.00 0.49 0.00 76 1006.2
20140903025849 89 150 7.0 12.0 0.00 0.49 0.00 76 1006.4
20140903025407 89 184 6.0 10.0 0.00 0.49 0.00 76 1006.4
20140903024906 89 150 7.0 10.0 0.00 0.49 0.00 77 1006.4
20140903024356 89 175 7.0 13.0 0.00 0.49 0.00 78 1006.4
20140903023834 88 218 8.0 13.0 0.00 0.49 0.00 78 1006.4
20140903021904 87 173 4.0 6.0 0.00 0.49 0.00 77 1006.4
20140903021339 87 136 2.0 7.0 0.00 0.49 0.00 78 1006.5
20140903020842 87 193 3.0 12.0 0.00 0.49 0.00 79 1006.5
20140903015852 88 145 4.0 8.0 0.00 0.49 0.00 78 1006.5
20140903014921 89 165 7.0 9.0 0.00 0.49 0.00 75 1006.5
20140903014331 89 126 4.0 7.0 0.00 0.49 0.00 76 1006.7
20140903013406 90 144 4.0 6.0 0.00 0.49 0.00 75 1006.7
20140903012838 90 119 5.0 9.0 0.00 0.49 0.00 76 1006.8
20140903011401 89 164 4.0 7.0 0.00 0.49 0.00 76 1006.9
20140903010829 89 213 5.0 12.0 0.00 0.49 0.00 76 1006.9
20140903005853 89 184 5.0 9.0 0.00 0.49 0.00 76 1006.9
20140903003906 87 183 4.0 12.0 0.00 0.49 0.00 77 1006.9
20140903003341 87 113 4.0 9.0 0.00 0.49 0.00 78 1006.9
20140903002829 88 202 6.0 12.0 0.00 0.49 0.00 79 1006.9
20140903002420 88 192 6.0 12.0 0.00 0.49 0.00 79 1006.9
20140903001847 88 109 5.0 9.0 0.00 0.49 0.00 80 1006.9
20140903001413 88 180 2.0 10.0 0.00 0.49 0.00 80 1007.0
20140903000838 87 138 6.0 10.0 0.00 0.49 0.00 81 1007.0
20140902235913 86 198 4.0 6.0 0.00 0.49 0.00 83 1007.1
20140902235347 86 182 4.0 8.0 0.00 0.49 0.00 84 1007.1
20140902234927 85 168 4.0 10.0 0.00 0.49 0.00 83 1007.1
20140902234420 86 194 4.0 12.0 0.00 0.49 0.00 82 1007.0
20140902233905 86 169 6.0 12.0 0.00 0.49 0.00 83 1007.0
20140902233327 86 188 4.0 7.0 0.00 0.49 0.00 84 1007.0
20140902232410 86 190 0.0 6.0 0.00 0.49 0.00 86 1007.0
20140902231852 85 239 4.0 6.0 0.00 0.49 0.00 87 1007.0
20140902230407 85 134 3.0 10.0 0.00 0.49 0.00 88 1007.0
20140902225832 84 189 3.0 8.0 0.00 0.49 0.00 89 1007.4
20140902225410 84 188 5.0 8.0 0.00 0.49 0.00 90 1007.4
20140902224841 83 178 0.0 4.0 0.00 0.49 0.00 91 1007.4
20140902223920 82 177 0.0 0.0 0.00 0.49 0.00 92 1007.3
20140902223329 82 202 0.0 0.0 0.00 0.49 0.00 92 1007.3
20140902221830 81 202 0.0 0.0 0.00 0.49 0.00 93 1007.2
20140902221408 81 200 0.0 0.0 0.00 0.49 0.00 93 1007.0
20140902220832 81 200 0.0 0.0 0.00 0.49 0.00 93 1007.0
20140902220404 81 200 0.0 0.0 0.00 0.49 0.00 93 1007.0
20140902215835 81 200 0.0 0.0 0.00 0.49 0.00 93 1006.9
20140902215401 80 200 0.0 0.0 0.00 0.49 0.00 93 1006.9
20140902214836 80 201 0.0 0.0 0.00 0.49 0.00 93 1006.9
20140902214408 80 228 0.0 0.0 0.00 0.49 0.00 93 1006.9
20140902213830 80 228 0.0 0.0 0.00 0.49 0.00 93 1006.9
20140902212902 80 228 0.0 0.0 0.00 0.49 0.00 94 1006.8
20140902212342 80 228 0.0 0.0 0.00 0.49 0.00 94 1006.8
20140902211923 80 228 0.0 0.0 0.00 0.49 0.00 94 1006.8
20140902211349 80 228 0.0 0.0 0.00 0.49 0.00 94 1006.5
20140902210831 79 228 0.0 0.0 0.00 0.49 0.00 94 1006.5
20140902205858 78 228 0.0 0.0 0.00 0.49 0.00 94 1006.4
20140902204403 78 228 0.0 0.0 0.00 0.49 0.00 94 1005.9
20140902203833 78 228 0.0 0.0 0.00 0.49 0.00 93 1005.9
20140902203401 78 228 0.0 0.0 0.00 0.49 0.00 93 1005.9
20140902202849 78 228 0.0 0.0 0.00 0.49 0.00 93 1005.7
20140902202417 78 228 0.0 0.0 0.00 0.49 0.00 93 1005.7
20140902201855 78 228 0.0 0.0 0.00 0.49 0.00 93 1005.7
20140902200902 78 228 0.0 0.0 0.00 0.49 0.00 93 1005.4
20140902200332 78 228 0.0 0.0 0.00 0.49 0.00 93 1005.4
20140902195347 78 232 0.0 0.0 0.00 0.49 0.00 93 1005.3
20140902194826 79 232 0.0 0.0 0.00 0.49 0.00 93 1005.3
20140902194406 78 232 0.0 0.0 0.00 0.49 0.00 93 1005.2
20140902193849 78 232 0.0 0.0 0.00 0.49 0.00 93 1005.2
20140902193419 78 232 0.0 0.0 0.00 0.49 0.00 93 1005.2
20140902192843 79 232 0.0 0.0 0.00 0.49 0.00 93 1004.9
20140902191906 79 219 0.0 0.0 0.00 0.49 0.00 93 1004.9
20140902191325 79 219 0.0 0.0 0.00 0.49 0.00 93 1004.8
20140902190911 79 219 0.0 0.0 0.00 0.49 0.00 93 1004.8
20140902190333 79 219 0.0 0.0 0.00 0.49 0.00 93 1004.8
20140902185924 79 219 0.0 0.0 0.00 0.49 0.00 93 1004.8
20140902185334 78 219 0.0 0.0 0.00 0.49 0.00 93 1004.8
20140902183909 78 219 0.0 0.0 0.00 0.49 0.00 93 1004.8
20140902183330 78 219 0.0 0.0 0.00 0.49 0.00 93 1004.8
20140902182350 78 225 0.0 0.0 0.00 0.49 0.00 93 1004.8
20140902181836 78 216 0.0 0.0 0.00 0.49 0.00 93 1004.8
20140902181356 78 211 0.0 0.0 0.00 0.49 0.00 93 1004.8
20140902180840 78 209 0.0 0.0 0.00 0.49 0.00 93 1004.8
20140902180413 78 221 0.0 0.0 0.00 0.49 0.00 93 1004.8
20140902175845 78 186 0.0 0.0 0.00 0.49 0.00 93 1004.9
20140902175410 78 186 0.0 0.0 0.00 0.49 0.00 93 1004.9
20140902174844 78 161 0.0 0.0 0.00 0.49 0.00 93 1004.9
20140902173913 78 194 0.0 0.0 0.00 0.49 0.00 93 1005.1
20140902173402 78 194 0.0 0.0 0.00 0.49 0.00 93 1005.1
20140902172852 78 194 0.0 0.0 0.00 0.49 0.00 93 1005.3
20140902171918 78 194 0.0 0.0 0.00 0.49 0.00 93 1005.3
20140902171357 78 194 0.0 0.0 0.00 0.49 0.00 94 1005.4
20140902170356 78 194 0.0 0.0 0.00 0.49 0.00 94 1005.4
20140902165830 78 194 0.0 0.0 0.00 0.49 0.00 94 1005.7
20140902165416 78 194 0.0 0.0 0.00 0.49 0.00 94 1005.7
20140902164841 78 194 0.0 0.0 0.00 0.49 0.00 94 1005.7
20140902164412 78 194 0.0 0.0 0.00 0.49 0.00 94 1006.0
20140902163910 78 193 0.0 0.0 0.00 0.49 0.00 94 1006.0
20140902163344 78 193 0.0 0.0 0.00 0.49 0.00 94 1006.0
20140902162356 78 192 0.0 0.0 0.00 0.49 0.00 94 1006.4
20140902161826 78 184 0.0 0.0 0.00 0.49 0.00 94 1006.4
20140902161400 78 184 0.0 0.0 0.00 0.49 0.00 94 1006.6
20140902160900 78 184 0.0 0.0 0.00 0.49 0.00 94 1006.6
20140902160337 78 184 0.0 0.0 0.00 0.49 0.00 94 1006.6
20140902155834 78 184 0.0 0.0 0.00 0.49 0.00 94 1006.8
20140902155346 78 184 0.0 0.0 0.00 0.49 0.00 94 1006.8
20140902154832 78 184 0.0 0.0 0.00 0.49 0.00 94 1006.8
20140902154343 78 184 0.0 0.0 0.00 0.49 0.00 94 1006.9
20140902153829 78 184 0.0 0.0 0.00 0.49 0.00 94 1006.9
20140902153337 78 190 0.0 0.0 0.00 0.49 0.00 94 1006.9
20140902152846 78 192 0.0 0.0 0.00 0.49 0.00 94 1006.9
20140902152333 78 192 0.0 5.0 0.00 0.49 0.00 94 1006.9
20140902151839 78 192 0.0 5.0 0.00 0.49 0.00 94 1006.9
20140902151347 78 185 0.0 4.0 0.00 0.49 0.00 94 1006.9
20140902150833 78 193 1.0 4.0 0.00 0.49 0.00 94 1006.9
20140902150326 78 202 0.0 0.0 0.00 0.49 0.00 94 1006.9
20140902145832 78 202 0.0 0.0 0.00 0.49 0.00 94 1006.8
20140902145341 77 216 0.0 0.0 0.00 0.49 0.00 94 1006.8
20140902144829 77 257 0.0 0.0 0.00 0.49 0.00 94 1006.8
20140902144337 77 280 0.0 0.0 0.00 0.49 0.00 94 1006.9
20140902143846 77 280 0.0 0.0 0.00 0.49 0.00 94 1006.9
20140902143334 77 280 0.0 0.0 0.00 0.49 0.00 94 1006.9
20140902142840 77 280 0.0 0.0 0.00 0.49 0.00 94 1007.0
20140902142328 77 280 0.0 0.0 0.00 0.49 0.00 94 1007.0
20140902141834 77 280 0.0 0.0 0.00 0.49 0.00 94 1007.0
20140902141343 77 280 0.0 0.0 0.00 0.49 0.00 94 1007.4
20140902140828 78 280 0.0 0.0 0.00 0.49 0.00 94 1007.4
20140902140332 78 280 0.0 0.0 0.00 0.49 0.00 94 1007.4
20140902135859 78 280 0.0 0.0 0.00 0.49 0.49 94 1007.4
20140902135357 78 280 0.0 0.0 0.01 0.49 0.49 93 1007.4
20140902134849 78 205 0.0 0.0 0.01 0.49 0.49 94 1007.4
20140902134337 78 205 0.0 0.0 0.01 0.49 0.49 94 1007.7
20140902133402 78 205 0.0 0.0 0.01 0.49 0.49 94 1007.7
20140902132840 78 205 0.0 0.0 0.01 0.49 0.49 94 1008.0
20140902132419 78 205 0.0 0.0 0.01 0.49 0.49 94 1008.0
20140902131405 77 272 0.0 0.0 0.02 0.49 0.49 93 1008.1
20140902130848 77 272 0.0 0.0 0.02 0.49 0.49 93 1008.1
20140902130414 77 272 0.0 0.0 0.02 0.49 0.49 93 1008.1
20140902125840 77 272 0.0 0.0 0.02 0.49 0.49 93 1008.5
20140902125413 77 272 0.0 0.0 0.02 0.49 0.49 93 1008.5
20140902124901 77 272 0.0 0.0 0.01 0.48 0.48 93 1008.5
20140902124342 77 272 0.0 0.0 0.01 0.48 0.48 93 1008.8
20140902123831 77 272 0.0 0.0 0.01 0.48 0.48 93 1008.8
20140902122920 77 272 0.0 0.0 0.01 0.48 0.48 93 1009.0
20140902122344 77 272 0.0 0.0 0.01 0.48 0.48 93 1009.0
20140902121828 77 272 0.0 0.0 0.00 0.47 0.47 93 1009.0
20140902121400 77 272 0.0 0.0 0.01 0.47 0.47 93 1009.1
20140902120844 77 272 0.0 0.0 0.01 0.47 0.47 93 1009.1
20140902120418 77 272 0.0 0.0 0.01 0.47 0.47 93 1009.1
20140902115840 77 272 0.0 0.0 0.01 0.47 0.47 93 1009.2
20140902114911 77 272 0.0 0.0 0.01 0.47 0.47 93 1009.2
20140902114353 77 272 0.0 0.0 0.01 0.47 0.47 93 1008.9
20140902113831 77 272 0.0 0.0 0.02 0.47 0.47 93 1008.9
20140902113415 77 272 0.0 0.0 0.02 0.47 0.47 93 1008.9
20140902112859 77 272 0.0 0.0 0.02 0.47 0.47 93 1008.6
20140902112350 77 272 0.0 0.0 0.02 0.47 0.47 93 1008.6
20140902111831 77 272 0.0 0.0 0.02 0.47 0.47 93 1008.6
20140902111405 77 272 0.0 0.0 0.01 0.46 0.46 93 1008.5
20140902110838 77 272 0.0 0.0 0.01 0.46 0.46 92 1008.5
20140902105915 77 272 0.0 0.0 0.01 0.46 0.46 92 1008.4
20140902105355 77 272 0.0 0.0 0.01 0.46 0.46 92 1008.4
20140902104848 77 272 0.0 0.0 0.01 0.46 0.46 92 1008.4
20140902103356 77 272 0.0 0.0 0.00 0.45 0.45 92 1007.9
20140902102846 77 266 0.0 1.0 0.00 0.45 0.45 92 1008.0
20140902101400 77 153 0.0 3.0 0.00 0.45 0.45 92 1007.8
20140902100850 77 208 0.0 1.0 0.00 0.45 0.45 92 1007.8
20140902095902 77 215 0.0 3.0 0.12 0.45 0.45 92 1007.6
20140902095327 77 219 0.0 4.0 0.24 0.45 0.45 92 1007.6
20140902094415 78 213 3.0 7.0 0.26 0.45 0.45 92 1007.6
20140902093838 78 209 6.0 7.0 0.26 0.45 0.45 91 1007.6
20140902092921 78 223 1.0 8.0 0.26 0.45 0.45 91 1007.6
20140902092350 78 232 2.0 8.0 0.26 0.45 0.45 91 1007.6
20140902091832 78 186 6.0 8.0 0.26 0.45 0.45 91 1007.6
20140902090359 79 182 5.0 6.0 0.25 0.44 0.44 90 1007.4
20140902085825 79 287 0.0 5.0 0.14 0.33 0.33 91 1006.9
20140902085404 80 259 0.0 5.0 0.05 0.24 0.24 90 1006.9
20140902084841 80 221 4.0 5.0 0.00 0.19 0.19 90 1006.9
20140902084340 81 232 4.0 5.0 0.00 0.19 0.19 91 1006.7
20140902083923 81 211 0.0 0.0 0.00 0.19 0.19 91 1006.7
20140902083350 81 231 0.0 0.0 0.00 0.19 0.19 91 1006.7
20140902082832 81 231 0.0 0.0 0.00 0.19 0.19 91 1006.3
20140902082406 81 231 0.0 0.0 0.00 0.19 0.19 91 1006.3
20140902081843 81 231 0.0 0.0 0.00 0.19 0.19 91 1006.3
20140902081425 82 231 0.0 0.0 0.00 0.19 0.19 91 1005.8
20140902080357 82 231 0.0 0.0 0.00 0.19 0.19 91 1005.8
20140902075830 82 231 0.0 0.0 0.00 0.19 0.19 91 1005.6
20140902075410 82 231 0.0 0.0 0.00 0.19 0.19 91 1005.6
20140902074900 82 231 0.0 0.0 0.00 0.19 0.19 91 1005.6
20140902074346 82 231 0.0 0.0 0.00 0.19 0.19 91 1005.4
20140902073832 82 231 0.0 0.0 0.00 0.19 0.19 91 1005.4
20140902073403 82 231 0.0 0.0 0.00 0.19 0.19 91 1005.4
20140902072838 82 231 0.0 0.0 0.00 0.19 0.19 91 1005.4
20140902072411 81 231 0.0 0.0 0.04 0.19 0.19 90 1005.4
20140902071845 82 232 0.0 0.0 0.10 0.19 0.19 90 1005.4
20140902071419 82 245 0.0 0.0 0.15 0.19 0.19 90 1005.3
20140902070855 82 261 0.0 0.0 0.19 0.19 0.19 90 1005.3
20140902070340 82 261 0.0 0.0 0.19 0.19 0.19 90 1005.3